Location: Bottenau
(48.5138°N, 8.0462°E)
Time: 20:58:19
(UTC+00:00)

SeaSat 1 - Pass Details

Date: 18 April 2021
Orbit: 744 x 747 km, 108.0° (Epoch: 18 May)

Event Time Altitude Azimuth Distance (km) Brightness Sun altitude
Rises 22:57:14 0° 24° (NNE) 3,203 6.5 -30.0°
Reaches altitude 10° 22:59:35 10° 19° (NNE) 2,276 5.7 -30.0°
Maximum altitude 23:04:15 44° 308° (NW) 1,031 3.3 -30.1°
Enters shadow 23:04:24 44° 303° (WNW) 1,033 3.3 -30.1°
